Year,Month,Day,Hour,Minute,Value (Times are PST for temperature in C)
2010,08,15,00,00,18.40
2010,08,15,00,01,18.40
2010,08,15,00,02,18.40
2010,08,15,00,03,18.40
2010,08,15,00,04,18.40
2010,08,15,00,05,18.40
2010,08,15,00,06,18.40
2010,08,15,00,07,18.40
2010,08,15,00,08,18.40
2010,08,15,00,09,18.40
2010,08,15,00,10,18.40
2010,08,15,00,11,18.40
2010,08,15,00,12,18.40
2010,08,15,00,13,18.40
2010,08,15,00,14,18.40
2010,08,15,00,15,18.40
2010,08,15,00,16,18.40
2010,08,15,00,17,18.30
2010,08,15,00,18,18.30
2010,08,15,00,19,18.30
2010,08,15,00,20,18.30
2010,08,15,00,21,18.30
2010,08,15,00,22,18.30
2010,08,15,00,23,18.20
2010,08,15,00,24,18.20
2010,08,15,00,25,18.20
2010,08,15,00,26,18.20
2010,08,15,00,27,18.20
2010,08,15,00,28,18.20
2010,08,15,00,29,18.20
2010,08,15,00,30,18.20
2010,08,15,00,31,18.20
2010,08,15,00,32,18.20
2010,08,15,00,33,18.20
2010,08,15,00,34,18.20
2010,08,15,00,35,18.20
2010,08,15,00,36,18.20
2010,08,15,00,37,18.20
2010,08,15,00,38,18.20
2010,08,15,00,39,18.20
2010,08,15,00,40,18.20
2010,08,15,00,41,18.20
2010,08,15,00,42,18.20
2010,08,15,00,43,18.20
2010,08,15,00,44,18.20
2010,08,15,00,45,18.20
2010,08,15,00,46,18.20
2010,08,15,00,47,18.20
2010,08,15,00,48,18.20
2010,08,15,00,49,18.10
2010,08,15,00,50,18.10
2010,08,15,00,51,18.10
2010,08,15,00,52,18.10
2010,08,15,00,53,18.10
2010,08,15,00,54,18.10
2010,08,15,00,55,18.10
2010,08,15,00,56,18.10
2010,08,15,00,57,18.10
2010,08,15,00,58,18.10
2010,08,15,00,59,18.10
2010,08,15,01,00,18.10
2010,08,15,01,01,18.10
2010,08,15,01,02,18.10
2010,08,15,01,03,18.10
2010,08,15,01,04,18.10
2010,08,15,01,05,18.10
2010,08,15,01,06,18.10
2010,08,15,01,07,18.10
2010,08,15,01,08,18.10
2010,08,15,01,09,18.10
2010,08,15,01,10,18.10
2010,08,15,01,11,18.10
2010,08,15,01,12,18.10
2010,08,15,01,13,18.10
2010,08,15,01,14,18.10
2010,08,15,01,15,18.10
2010,08,15,01,16,18.10
2010,08,15,01,17,18.10
2010,08,15,01,18,18.10
2010,08,15,01,19,18.00
2010,08,15,01,20,18.00
2010,08,15,01,21,18.00
2010,08,15,01,22,18.00
2010,08,15,01,23,18.00
2010,08,15,01,24,18.00
2010,08,15,01,25,18.00
2010,08,15,01,26,17.90
2010,08,15,01,27,17.90
2010,08,15,01,28,17.90
2010,08,15,01,29,17.90
2010,08,15,01,30,17.90
2010,08,15,01,31,17.90
2010,08,15,01,32,17.90
2010,08,15,01,33,17.90
2010,08,15,01,34,17.90
2010,08,15,01,35,17.90
2010,08,15,01,36,17.90
2010,08,15,01,37,17.90
2010,08,15,01,38,17.90
2010,08,15,01,39,17.90
2010,08,15,01,40,17.90
2010,08,15,01,41,17.90
2010,08,15,01,42,17.90
2010,08,15,01,43,17.90
2010,08,15,01,44,17.90
2010,08,15,01,45,17.90
2010,08,15,01,46,18.00
2010,08,15,01,47,18.00
2010,08,15,01,48,18.00
2010,08,15,01,49,18.00
2010,08,15,01,50,18.00
2010,08,15,01,51,18.00
2010,08,15,01,52,18.10
2010,08,15,01,53,18.10
2010,08,15,01,54,18.10
2010,08,15,01,55,18.10
2010,08,15,01,56,18.10
2010,08,15,01,57,18.10
2010,08,15,01,58,18.10
2010,08,15,01,59,18.10
2010,08,15,02,00,18.10
2010,08,15,02,01,18.10
2010,08,15,02,02,18.20
2010,08,15,02,03,18.20
2010,08,15,02,04,18.20
2010,08,15,02,05,18.20
2010,08,15,02,06,18.20
2010,08,15,02,07,18.20
2010,08,15,02,08,18.20
2010,08,15,02,09,18.20
2010,08,15,02,10,18.20
2010,08,15,02,11,18.20
2010,08,15,02,12,18.20
2010,08,15,02,13,18.20
2010,08,15,02,14,18.20
2010,08,15,02,15,18.20
2010,08,15,02,16,18.20
2010,08,15,02,17,18.20
2010,08,15,02,18,18.20
2010,08,15,02,19,18.20
2010,08,15,02,20,18.20
2010,08,15,02,21,18.20
2010,08,15,02,22,18.20
2010,08,15,02,23,18.20
2010,08,15,02,24,18.20
2010,08,15,02,25,18.20
2010,08,15,02,26,18.20
2010,08,15,02,27,18.20
2010,08,15,02,28,18.20
2010,08,15,02,29,18.20
2010,08,15,02,30,18.20
2010,08,15,02,31,18.20
2010,08,15,02,32,18.20
2010,08,15,02,33,18.20
2010,08,15,02,34,18.20
2010,08,15,02,35,18.20
2010,08,15,02,36,18.20
2010,08,15,02,37,18.20
2010,08,15,02,38,18.20
2010,08,15,02,39,18.20
2010,08,15,02,40,18.20
2010,08,15,02,41,18.20
2010,08,15,02,42,18.10
2010,08,15,02,43,18.10
2010,08,15,02,44,18.10
2010,08,15,02,45,18.10
2010,08,15,02,46,18.10
2010,08,15,02,47,18.10
2010,08,15,02,48,18.10
2010,08,15,02,49,18.10
2010,08,15,02,50,18.10
2010,08,15,02,51,18.10
2010,08,15,02,52,18.10
2010,08,15,02,53,18.00
2010,08,15,02,54,18.00
2010,08,15,02,55,18.00
2010,08,15,02,56,18.00
2010,08,15,02,57,18.00
2010,08,15,02,58,18.00
2010,08,15,02,59,18.00
2010,08,15,03,00,18.00
2010,08,15,03,01,18.00
2010,08,15,03,02,18.00
2010,08,15,03,03,18.00
2010,08,15,03,04,18.00
2010,08,15,03,05,18.00
2010,08,15,03,06,18.00
2010,08,15,03,07,18.00
2010,08,15,03,08,18.00
2010,08,15,03,09,18.00
2010,08,15,03,10,17.90
2010,08,15,03,11,17.90
2010,08,15,03,12,17.90
2010,08,15,03,13,17.90
2010,08,15,03,14,17.90
2010,08,15,03,15,17.90
2010,08,15,03,16,17.90
2010,08,15,03,17,17.90
2010,08,15,03,18,17.90
2010,08,15,03,19,17.90
2010,08,15,03,20,17.90
2010,08,15,03,21,17.90
2010,08,15,03,22,17.80
2010,08,15,03,23,17.80
2010,08,15,03,24,17.80
2010,08,15,03,25,17.80
2010,08,15,03,26,17.80
2010,08,15,03,27,17.80
2010,08,15,03,28,17.80
2010,08,15,03,29,17.80
2010,08,15,03,30,17.80
2010,08,15,03,31,17.80
2010,08,15,03,32,17.80
2010,08,15,03,33,17.80
2010,08,15,03,34,17.80
2010,08,15,03,35,17.80
2010,08,15,03,36,17.80
2010,08,15,03,37,17.70
2010,08,15,03,38,17.70
2010,08,15,03,39,17.70
2010,08,15,03,40,17.70
2010,08,15,03,41,17.70
2010,08,15,03,42,17.70
2010,08,15,03,43,17.70
2010,08,15,03,44,17.70
2010,08,15,03,45,17.70
2010,08,15,03,46,17.70
2010,08,15,03,47,17.70
2010,08,15,03,48,17.70
2010,08,15,03,49,17.70
2010,08,15,03,50,17.60
2010,08,15,03,51,17.60
2010,08,15,03,52,17.60
2010,08,15,03,53,17.60
2010,08,15,03,54,17.60
2010,08,15,03,55,17.60
2010,08,15,03,56,17.60
2010,08,15,03,57,17.60
2010,08,15,03,58,17.60
2010,08,15,03,59,17.60
2010,08,15,04,00,17.60
2010,08,15,04,01,17.60
2010,08,15,04,02,17.60
2010,08,15,04,03,17.60
2010,08,15,04,04,17.60
2010,08,15,04,05,17.60
2010,08,15,04,06,17.50
2010,08,15,04,07,17.50
2010,08,15,04,08,17.50
2010,08,15,04,09,17.50
2010,08,15,04,10,17.50
2010,08,15,04,11,17.50
2010,08,15,04,12,17.50
2010,08,15,04,13,17.40
2010,08,15,04,14,17.40
2010,08,15,04,15,17.40
2010,08,15,04,16,17.40
2010,08,15,04,17,17.40
2010,08,15,04,18,17.40
2010,08,15,04,19,17.40
2010,08,15,04,20,17.30
2010,08,15,04,21,17.30
2010,08,15,04,22,17.30
2010,08,15,04,23,17.30
2010,08,15,04,24,17.30
2010,08,15,04,25,17.20
2010,08,15,04,26,17.20
2010,08,15,04,27,17.20
2010,08,15,04,28,17.20
2010,08,15,04,29,17.20
2010,08,15,04,30,17.20
2010,08,15,04,31,17.20
2010,08,15,04,32,17.20
2010,08,15,04,33,17.10
2010,08,15,04,34,17.10
2010,08,15,04,35,17.10
2010,08,15,04,36,17.10
2010,08,15,04,37,17.10
2010,08,15,04,38,17.10
2010,08,15,04,39,17.10
2010,08,15,04,40,17.10
2010,08,15,04,41,17.10
2010,08,15,04,42,17.10
2010,08,15,04,43,17.10
2010,08,15,04,44,17.10
2010,08,15,04,45,17.10
2010,08,15,04,46,17.10
2010,08,15,04,47,17.10
2010,08,15,04,48,17.10
2010,08,15,04,49,17.10
2010,08,15,04,50,17.10
2010,08,15,04,51,17.10
2010,08,15,04,52,17.10
2010,08,15,04,53,17.10
2010,08,15,04,54,17.10
2010,08,15,04,55,17.10
2010,08,15,04,56,17.00
2010,08,15,04,57,17.00
2010,08,15,04,58,17.00
2010,08,15,04,59,17.00
2010,08,15,05,00,17.00
2010,08,15,05,01,16.90
2010,08,15,05,02,16.90
2010,08,15,05,03,16.90
2010,08,15,05,04,16.90
2010,08,15,05,05,16.90
2010,08,15,05,06,16.90
2010,08,15,05,07,16.80
2010,08,15,05,08,16.80
2010,08,15,05,09,16.80
2010,08,15,05,10,16.80
2010,08,15,05,11,16.80
2010,08,15,05,12,16.80
2010,08,15,05,13,16.80
2010,08,15,05,14,16.70
2010,08,15,05,15,16.70
2010,08,15,05,16,16.70
2010,08,15,05,17,16.70
2010,08,15,05,18,16.70
2010,08,15,05,19,16.70
2010,08,15,05,20,16.70
2010,08,15,05,21,16.60
2010,08,15,05,22,16.60
2010,08,15,05,23,16.60
2010,08,15,05,24,16.60
2010,08,15,05,25,16.60
2010,08,15,05,26,16.60
2010,08,15,05,27,16.60
2010,08,15,05,28,16.60
2010,08,15,05,29,16.60
2010,08,15,05,30,16.60
2010,08,15,05,31,16.60
2010,08,15,05,32,16.60
2010,08,15,05,33,16.50
2010,08,15,05,34,16.50
2010,08,15,05,35,16.50
2010,08,15,05,36,16.50
2010,08,15,05,37,16.50
2010,08,15,05,38,16.40
2010,08,15,05,39,16.40
2010,08,15,05,40,16.40
2010,08,15,05,41,16.40
2010,08,15,05,42,16.40
2010,08,15,05,43,16.40
2010,08,15,05,44,16.40
2010,08,15,05,45,16.40
2010,08,15,05,46,16.30
2010,08,15,05,47,16.30
2010,08,15,05,48,16.30
2010,08,15,05,49,16.30
2010,08,15,05,50,16.30
2010,08,15,05,51,16.30
2010,08,15,05,52,16.30
2010,08,15,05,53,16.30
2010,08,15,05,54,16.30
2010,08,15,05,55,16.30
2010,08,15,05,56,16.30
2010,08,15,05,57,16.30
2010,08,15,05,58,16.20
2010,08,15,05,59,16.20
2010,08,15,06,00,16.20
2010,08,15,06,01,16.20
2010,08,15,06,02,16.20
2010,08,15,06,03,16.20
2010,08,15,06,04,16.20
2010,08,15,06,05,16.20
2010,08,15,06,06,16.20
2010,08,15,06,07,16.20
2010,08,15,06,08,16.20
2010,08,15,06,09,16.20
2010,08,15,06,10,16.20
2010,08,15,06,11,16.20
2010,08,15,06,12,16.20
2010,08,15,06,13,16.10
2010,08,15,06,14,16.10
2010,08,15,06,15,16.10
2010,08,15,06,16,16.10
2010,08,15,06,17,16.10
2010,08,15,06,18,16.10
2010,08,15,06,19,16.10
2010,08,15,06,20,16.10
2010,08,15,06,21,16.10
2010,08,15,06,22,16.10
2010,08,15,06,23,16.10
2010,08,15,06,24,16.20
2010,08,15,06,25,16.20
2010,08,15,06,26,16.20
2010,08,15,06,27,16.20
2010,08,15,06,28,16.20
2010,08,15,06,29,16.20
2010,08,15,06,30,16.20
2010,08,15,06,31,16.20
2010,08,15,06,32,16.20
2010,08,15,06,33,16.20
2010,08,15,06,34,16.20
2010,08,15,06,35,16.20
2010,08,15,06,36,16.20
2010,08,15,06,37,16.20
2010,08,15,06,38,16.20
2010,08,15,06,39,16.10
2010,08,15,06,40,16.10
2010,08,15,06,41,16.20
2010,08,15,06,42,16.20
2010,08,15,06,43,16.20
2010,08,15,06,44,16.20
2010,08,15,06,45,16.20
2010,08,15,06,46,16.20
2010,08,15,06,47,16.20
2010,08,15,06,48,16.20
2010,08,15,06,49,16.20
2010,08,15,06,50,16.20
2010,08,15,06,51,16.20
2010,08,15,06,52,16.20
2010,08,15,06,53,16.20
2010,08,15,06,54,16.30
2010,08,15,06,55,16.30
2010,08,15,06,56,16.30
2010,08,15,06,57,16.30
2010,08,15,06,58,16.30
2010,08,15,06,59,16.30
2010,08,15,07,00,16.40
2010,08,15,07,01,16.40
2010,08,15,07,02,16.40
2010,08,15,07,03,16.40
2010,08,15,07,04,16.40
2010,08,15,07,05,16.50
2010,08,15,07,06,16.50
2010,08,15,07,07,16.50
2010,08,15,07,08,16.50
2010,08,15,07,09,16.60
2010,08,15,07,10,16.60
2010,08,15,07,11,16.60
2010,08,15,07,12,16.60
2010,08,15,07,13,16.70
2010,08,15,07,14,16.70
2010,08,15,07,15,16.70
2010,08,15,07,16,16.80
2010,08,15,07,17,16.80
2010,08,15,07,18,16.80
2010,08,15,07,19,16.80
2010,08,15,07,20,16.80
2010,08,15,07,21,16.90
2010,08,15,07,22,16.90
2010,08,15,07,23,16.90
2010,08,15,07,24,16.90
2010,08,15,07,25,16.90
2010,08,15,07,26,16.90
2010,08,15,07,27,16.90
2010,08,15,07,28,16.90
2010,08,15,07,29,16.90
2010,08,15,07,30,16.90
2010,08,15,07,31,16.90
2010,08,15,07,32,16.90
2010,08,15,07,33,16.90
2010,08,15,07,34,16.90
2010,08,15,07,35,16.90
2010,08,15,07,36,16.90
2010,08,15,07,37,16.90
2010,08,15,07,38,17.00
2010,08,15,07,39,17.00
2010,08,15,07,40,17.00
2010,08,15,07,41,17.00
2010,08,15,07,42,17.00
2010,08,15,07,43,17.10
2010,08,15,07,44,17.10
2010,08,15,07,45,17.10
2010,08,15,07,46,17.10
2010,08,15,07,47,17.10
2010,08,15,07,48,17.10
2010,08,15,07,49,17.20
2010,08,15,07,50,17.20
2010,08,15,07,51,17.20
2010,08,15,07,52,17.30
2010,08,15,07,53,17.30
2010,08,15,07,54,17.40
2010,08,15,07,55,17.50
2010,08,15,07,56,17.60
2010,08,15,07,57,17.80
2010,08,15,07,58,18.00
2010,08,15,07,59,18.10
2010,08,15,08,00,18.30
2010,08,15,08,01,18.60
2010,08,15,08,02,18.90
2010,08,15,08,03,19.00
2010,08,15,08,04,19.30
2010,08,15,08,05,19.40
2010,08,15,08,06,19.50
2010,08,15,08,07,19.60
2010,08,15,08,08,19.70
2010,08,15,08,09,19.80
2010,08,15,08,10,20.00
2010,08,15,08,11,20.20
2010,08,15,08,12,20.40
2010,08,15,08,13,20.60
2010,08,15,08,14,20.70
2010,08,15,08,15,20.90
2010,08,15,08,16,21.10
2010,08,15,08,17,21.40
2010,08,15,08,18,21.60
2010,08,15,08,19,21.70
2010,08,15,08,20,21.80
2010,08,15,08,21,22.00
2010,08,15,08,22,22.10
2010,08,15,08,23,22.30
2010,08,15,08,24,22.50
2010,08,15,08,25,22.70
2010,08,15,08,26,22.90
2010,08,15,08,27,23.00
2010,08,15,08,28,23.20
2010,08,15,08,29,23.30
2010,08,15,08,30,23.50
2010,08,15,08,31,23.70
2010,08,15,08,32,23.80
2010,08,15,08,33,23.80
2010,08,15,08,34,23.90
2010,08,15,08,35,23.90
2010,08,15,08,36,24.00
2010,08,15,08,37,24.10
2010,08,15,08,38,24.10
2010,08,15,08,39,24.20
2010,08,15,08,40,24.20
2010,08,15,08,41,24.20
2010,08,15,08,42,24.30
2010,08,15,08,43,24.30
2010,08,15,08,44,24.30
2010,08,15,08,45,24.30
2010,08,15,08,46,24.30
2010,08,15,08,47,24.30
2010,08,15,08,48,24.30
2010,08,15,08,49,24.30
2010,08,15,08,50,24.30
2010,08,15,08,51,24.40
2010,08,15,08,52,24.40
2010,08,15,08,53,24.50
2010,08,15,08,54,24.60
2010,08,15,08,55,24.60
2010,08,15,08,56,24.70
2010,08,15,08,57,24.70
2010,08,15,08,58,24.80
2010,08,15,08,59,24.80
2010,08,15,09,00,24.80
2010,08,15,09,01,24.90
2010,08,15,09,02,24.90
2010,08,15,09,03,25.00
2010,08,15,09,04,25.00
2010,08,15,09,05,25.00
2010,08,15,09,06,25.00
2010,08,15,09,07,25.00
2010,08,15,09,08,25.00
2010,08,15,09,09,25.00
2010,08,15,09,10,25.10
2010,08,15,09,11,25.10
2010,08,15,09,12,25.10
2010,08,15,09,13,25.10
2010,08,15,09,14,25.20
2010,08,15,09,15,25.20
2010,08,15,09,16,25.20
2010,08,15,09,17,25.20
2010,08,15,09,18,25.30
2010,08,15,09,19,25.30
2010,08,15,09,20,25.30
2010,08,15,09,21,25.30
2010,08,15,09,22,25.30
2010,08,15,09,23,25.30
2010,08,15,09,24,25.40
2010,08,15,09,25,25.40
2010,08,15,09,26,25.40
2010,08,15,09,27,25.40
2010,08,15,09,28,25.50
2010,08,15,09,29,25.50
2010,08,15,09,30,25.50
2010,08,15,09,31,25.50
2010,08,15,09,32,25.50
2010,08,15,09,33,25.50
2010,08,15,09,34,25.60
2010,08,15,09,35,25.60
2010,08,15,09,36,25.60
2010,08,15,09,37,25.60
2010,08,15,09,38,25.60
2010,08,15,09,39,25.60
2010,08,15,09,40,25.60
2010,08,15,09,41,25.60
2010,08,15,09,42,25.60
2010,08,15,09,43,25.60
2010,08,15,09,44,25.60
2010,08,15,09,45,25.60
2010,08,15,09,46,25.60
2010,08,15,09,47,25.60
2010,08,15,09,48,25.60
2010,08,15,09,49,25.60
2010,08,15,09,50,25.60
2010,08,15,09,51,25.60
2010,08,15,09,52,25.60
2010,08,15,09,53,25.60
2010,08,15,09,54,25.60
2010,08,15,09,55,25.60
2010,08,15,09,56,25.70
2010,08,15,09,57,25.60
2010,08,15,09,58,25.70
2010,08,15,09,59,25.70
2010,08,15,10,00,25.70
2010,08,15,10,01,25.70
2010,08,15,10,02,25.70
2010,08,15,10,03,25.80
2010,08,15,10,04,25.80
2010,08,15,10,05,25.90
2010,08,15,10,06,25.90
2010,08,15,10,07,25.90
2010,08,15,10,08,25.90
2010,08,15,10,09,25.90
2010,08,15,10,10,25.90
2010,08,15,10,11,25.90
2010,08,15,10,12,25.90
2010,08,15,10,13,26.00
2010,08,15,10,14,26.00
2010,08,15,10,15,26.00
2010,08,15,10,16,26.00
2010,08,15,10,17,26.10
2010,08,15,10,18,26.10
2010,08,15,10,19,26.10
2010,08,15,10,20,26.20
2010,08,15,10,21,26.20
2010,08,15,10,22,26.20
2010,08,15,10,23,26.30
2010,08,15,10,24,26.30
2010,08,15,10,25,26.30
2010,08,15,10,26,26.30
2010,08,15,10,27,26.30
2010,08,15,10,28,26.30
2010,08,15,10,29,26.40
2010,08,15,10,30,26.40
2010,08,15,10,31,26.40
2010,08,15,10,32,26.40
2010,08,15,10,33,26.40
2010,08,15,10,34,26.50
2010,08,15,10,35,26.50
2010,08,15,10,36,26.60
2010,08,15,10,37,26.60
2010,08,15,10,38,26.70
2010,08,15,10,39,26.70
2010,08,15,10,40,26.80
2010,08,15,10,41,26.80
2010,08,15,10,42,26.90
2010,08,15,10,43,26.90
2010,08,15,10,44,27.00
2010,08,15,10,45,27.00
2010,08,15,10,46,27.10
2010,08,15,10,47,27.10
2010,08,15,10,48,27.10
2010,08,15,10,49,27.20
2010,08,15,10,50,27.20
2010,08,15,10,51,27.20
2010,08,15,10,52,27.20
2010,08,15,10,53,27.20
2010,08,15,10,54,27.20
2010,08,15,10,55,27.20
2010,08,15,10,56,27.20
2010,08,15,10,57,27.20
2010,08,15,10,58,27.20
2010,08,15,10,59,27.30
2010,08,15,11,00,27.30
2010,08,15,11,01,27.30
2010,08,15,11,02,27.30
2010,08,15,11,03,27.30
2010,08,15,11,04,27.30
2010,08,15,11,05,27.30
2010,08,15,11,06,27.30
2010,08,15,11,07,27.40
2010,08,15,11,08,27.40
2010,08,15,11,09,27.40
2010,08,15,11,10,27.50
2010,08,15,11,11,27.60
2010,08,15,11,12,27.60
2010,08,15,11,13,27.70
2010,08,15,11,14,27.70
2010,08,15,11,15,27.80
2010,08,15,11,16,27.80
2010,08,15,11,17,27.80
2010,08,15,11,18,27.90
2010,08,15,11,19,27.90
2010,08,15,11,20,28.00
2010,08,15,11,21,28.10
2010,08,15,11,22,28.10
2010,08,15,11,23,28.20
2010,08,15,11,24,28.20
2010,08,15,11,25,28.30
2010,08,15,11,26,28.30
2010,08,15,11,27,28.40
2010,08,15,11,28,28.40
2010,08,15,11,29,28.40
2010,08,15,11,30,28.50
2010,08,15,11,31,28.60
2010,08,15,11,32,28.60
2010,08,15,11,33,28.60
2010,08,15,11,34,28.60
2010,08,15,11,35,28.60
2010,08,15,11,36,28.60
2010,08,15,11,37,28.60
2010,08,15,11,38,28.70
2010,08,15,11,39,28.70
2010,08,15,11,40,28.80
2010,08,15,11,41,28.80
2010,08,15,11,42,28.90
2010,08,15,11,43,28.90
2010,08,15,11,44,28.90
2010,08,15,11,45,29.00
2010,08,15,11,46,29.10
2010,08,15,11,47,29.10
2010,08,15,11,48,29.20
2010,08,15,11,49,29.20
2010,08,15,11,50,29.20
2010,08,15,11,51,29.20
2010,08,15,11,52,29.20
2010,08,15,11,53,29.30
2010,08,15,11,54,29.30
2010,08,15,11,55,29.30
2010,08,15,11,56,29.30
2010,08,15,11,57,29.30
2010,08,15,11,58,29.40
2010,08,15,11,59,29.40
2010,08,15,12,00,29.40
2010,08,15,12,01,29.40
2010,08,15,12,02,29.40
2010,08,15,12,03,29.40
2010,08,15,12,04,29.50
2010,08,15,12,05,29.60
2010,08,15,12,06,29.60
2010,08,15,12,07,29.60
2010,08,15,12,08,29.70
2010,08,15,12,09,29.70
2010,08,15,12,10,29.80
2010,08,15,12,11,29.80
2010,08,15,12,12,29.90
2010,08,15,12,13,29.90
2010,08,15,12,14,30.00
2010,08,15,12,15,30.00
2010,08,15,12,16,30.10
2010,08,15,12,17,30.10
2010,08,15,12,18,30.20
2010,08,15,12,19,30.20
2010,08,15,12,20,30.30
2010,08,15,12,21,30.30
2010,08,15,12,22,30.40
2010,08,15,12,23,30.40
2010,08,15,12,24,30.50
2010,08,15,12,25,30.60
2010,08,15,12,26,30.60
2010,08,15,12,27,30.60
2010,08,15,12,28,30.60
2010,08,15,12,29,30.60
2010,08,15,12,30,30.70
2010,08,15,12,31,30.80
2010,08,15,12,32,30.90
2010,08,15,12,33,31.00
2010,08,15,12,34,31.00
2010,08,15,12,35,31.00
2010,08,15,12,36,31.00
2010,08,15,12,37,31.00
2010,08,15,12,38,31.10
2010,08,15,12,39,31.10
2010,08,15,12,40,31.20
2010,08,15,12,41,31.30
2010,08,15,12,42,31.30
2010,08,15,12,43,31.30
2010,08,15,12,44,31.30
2010,08,15,12,45,31.40
2010,08,15,12,46,31.50
2010,08,15,12,47,31.60
2010,08,15,12,48,31.60
2010,08,15,12,49,31.70
2010,08,15,12,50,31.80
2010,08,15,12,51,31.90
2010,08,15,12,52,31.90
2010,08,15,12,53,32.00
2010,08,15,12,54,32.10
2010,08,15,12,55,32.10
2010,08,15,12,56,32.10
2010,08,15,12,57,32.10
2010,08,15,12,58,32.10
2010,08,15,12,59,32.00
2010,08,15,13,00,32.00
2010,08,15,13,01,32.00
2010,08,15,13,02,32.00
2010,08,15,13,03,31.90
2010,08,15,13,04,31.80
2010,08,15,13,05,31.80
2010,08,15,13,06,31.80
2010,08,15,13,07,31.80
2010,08,15,13,08,31.90
2010,08,15,13,09,31.90
2010,08,15,13,10,32.00
2010,08,15,13,11,32.00
2010,08,15,13,12,32.00
2010,08,15,13,13,32.10
2010,08,15,13,14,32.10
2010,08,15,13,15,32.10
2010,08,15,13,16,32.10
2010,08,15,13,17,32.10
2010,08,15,13,18,32.10
2010,08,15,13,19,32.20
2010,08,15,13,20,32.20
2010,08,15,13,21,32.10
2010,08,15,13,22,32.10
2010,08,15,13,23,32.00
2010,08,15,13,24,31.90
2010,08,15,13,25,31.80
2010,08,15,13,26,31.80
2010,08,15,13,27,31.90
2010,08,15,13,28,31.90
2010,08,15,13,29,32.00
2010,08,15,13,30,32.10
2010,08,15,13,31,32.10
2010,08,15,13,32,32.20
2010,08,15,13,33,32.20
2010,08,15,13,34,32.30
2010,08,15,13,35,32.30
2010,08,15,13,36,32.30
2010,08,15,13,37,32.30
2010,08,15,13,38,32.30
2010,08,15,13,39,32.30
2010,08,15,13,40,32.40
2010,08,15,13,41,32.40
2010,08,15,13,42,32.50
2010,08,15,13,43,32.60
2010,08,15,13,44,32.70
2010,08,15,13,45,32.70
2010,08,15,13,46,32.70
2010,08,15,13,47,32.70
2010,08,15,13,48,32.80
2010,08,15,13,49,32.90
2010,08,15,13,50,33.00
2010,08,15,13,51,33.00
2010,08,15,13,52,33.10
2010,08,15,13,53,33.20
2010,08,15,13,54,33.20
2010,08,15,13,55,33.20
2010,08,15,13,56,33.20
2010,08,15,13,57,33.20
2010,08,15,13,58,33.30
2010,08,15,13,59,33.30
2010,08,15,14,00,33.20
2010,08,15,14,01,33.10
2010,08,15,14,02,33.10
2010,08,15,14,03,33.00
2010,08,15,14,04,33.00
2010,08,15,14,05,33.10
2010,08,15,14,06,33.10
2010,08,15,14,07,33.10
2010,08,15,14,08,33.00
2010,08,15,14,09,32.90
2010,08,15,14,10,32.90
2010,08,15,14,11,33.00
2010,08,15,14,12,33.10
2010,08,15,14,13,33.10
2010,08,15,14,14,33.20
2010,08,15,14,15,33.20
2010,08,15,14,16,33.20
2010,08,15,14,17,33.20
2010,08,15,14,18,33.00
2010,08,15,14,19,32.90
2010,08,15,14,20,32.90
2010,08,15,14,21,32.90
2010,08,15,14,22,32.90
2010,08,15,14,23,32.90
2010,08,15,14,24,33.00
2010,08,15,14,25,33.10
2010,08,15,14,26,33.10
2010,08,15,14,27,33.20
2010,08,15,14,28,33.30
2010,08,15,14,29,33.30
2010,08,15,14,30,33.40
2010,08,15,14,31,33.40
2010,08,15,14,32,33.40
2010,08,15,14,33,33.50
2010,08,15,14,34,33.60
2010,08,15,14,35,33.60
2010,08,15,14,36,33.60
2010,08,15,14,37,33.60
2010,08,15,14,38,33.50
2010,08,15,14,39,33.50
2010,08,15,14,40,33.40
2010,08,15,14,41,33.40
2010,08,15,14,42,33.30
2010,08,15,14,43,33.40
2010,08,15,14,44,33.40
2010,08,15,14,45,33.40
2010,08,15,14,46,33.40
2010,08,15,14,47,33.40
2010,08,15,14,48,33.40
2010,08,15,14,49,33.40
2010,08,15,14,50,33.40
2010,08,15,14,51,33.40
2010,08,15,14,52,33.50
2010,08,15,14,53,33.50
2010,08,15,14,54,33.50
2010,08,15,14,55,33.50
2010,08,15,14,56,33.50
2010,08,15,14,57,33.50
2010,08,15,14,58,33.50
2010,08,15,14,59,33.50
2010,08,15,15,00,33.40
2010,08,15,15,01,33.40
2010,08,15,15,02,33.40
2010,08,15,15,03,33.30
2010,08,15,15,04,33.20
2010,08,15,15,05,33.20
2010,08,15,15,06,33.20
2010,08,15,15,07,33.10
2010,08,15,15,08,33.10
2010,08,15,15,09,33.10
2010,08,15,15,10,33.10
2010,08,15,15,11,33.10
2010,08,15,15,12,33.10
2010,08,15,15,13,33.10
2010,08,15,15,14,33.20
2010,08,15,15,15,33.20
2010,08,15,15,16,33.20
2010,08,15,15,17,33.20
2010,08,15,15,18,33.20
2010,08,15,15,19,33.20
2010,08,15,15,20,33.20
2010,08,15,15,21,33.20
2010,08,15,15,22,33.20
2010,08,15,15,23,33.20
2010,08,15,15,24,33.20
2010,08,15,15,25,33.20
2010,08,15,15,26,33.20
2010,08,15,15,27,33.20
2010,08,15,15,28,33.20
2010,08,15,15,29,33.20
2010,08,15,15,30,33.20
2010,08,15,15,31,33.20
2010,08,15,15,32,33.20
2010,08,15,15,33,33.20
2010,08,15,15,34,33.20
2010,08,15,15,35,33.20
2010,08,15,15,36,33.20
2010,08,15,15,37,33.20
2010,08,15,15,38,33.20
2010,08,15,15,39,33.20
2010,08,15,15,40,33.20
2010,08,15,15,41,33.20
2010,08,15,15,42,33.20
2010,08,15,15,43,33.20
2010,08,15,15,44,33.20
2010,08,15,15,45,33.20
2010,08,15,15,46,33.20
2010,08,15,15,47,33.20
2010,08,15,15,48,33.20
2010,08,15,15,49,33.20
2010,08,15,15,50,33.20
2010,08,15,15,51,33.20
2010,08,15,15,52,33.20
2010,08,15,15,53,33.20
2010,08,15,15,54,33.20
2010,08,15,15,55,33.20
2010,08,15,15,56,33.20
2010,08,15,15,57,33.20
2010,08,15,15,58,33.20
2010,08,15,15,59,33.20
2010,08,15,16,00,33.20
2010,08,15,16,01,33.20
2010,08,15,16,02,33.20
2010,08,15,16,03,33.20
2010,08,15,16,04,33.20
2010,08,15,16,05,33.10
2010,08,15,16,06,33.10
2010,08,15,16,07,33.10
2010,08,15,16,08,33.10
2010,08,15,16,09,33.00
2010,08,15,16,10,33.00
2010,08,15,16,11,32.90
2010,08,15,16,12,32.90
2010,08,15,16,13,32.90
2010,08,15,16,14,32.90
2010,08,15,16,15,32.90
2010,08,15,16,16,32.90
2010,08,15,16,17,32.90
2010,08,15,16,18,32.90
2010,08,15,16,19,32.90
2010,08,15,16,20,32.90
2010,08,15,16,21,32.90
2010,08,15,16,22,32.90
2010,08,15,16,23,32.90
2010,08,15,16,24,32.90
2010,08,15,16,25,32.90
2010,08,15,16,26,32.90
2010,08,15,16,27,32.90
2010,08,15,16,28,32.90
2010,08,15,16,29,32.90
2010,08,15,16,30,32.90
2010,08,15,16,31,32.90
2010,08,15,16,32,32.80
2010,08,15,16,33,32.80
2010,08,15,16,34,32.80
2010,08,15,16,35,32.90
2010,08,15,16,36,32.90
2010,08,15,16,37,32.90
2010,08,15,16,38,32.90
2010,08,15,16,39,32.90
2010,08,15,16,40,32.80
2010,08,15,16,41,32.80
2010,08,15,16,42,32.80
2010,08,15,16,43,32.80
2010,08,15,16,44,32.80
2010,08,15,16,45,32.80
2010,08,15,16,46,32.80
2010,08,15,16,47,32.80
2010,08,15,16,48,32.80
2010,08,15,16,49,32.70
2010,08,15,16,50,32.70
2010,08,15,16,51,32.60
2010,08,15,16,52,32.60
2010,08,15,16,53,32.60
2010,08,15,16,54,32.50
2010,08,15,16,55,32.40
2010,08,15,16,56,32.40
2010,08,15,16,57,32.30
2010,08,15,16,58,32.30
2010,08,15,16,59,32.20
2010,08,15,17,00,32.20
2010,08,15,17,01,32.10
2010,08,15,17,02,32.10
2010,08,15,17,03,32.00
2010,08,15,17,04,31.90
2010,08,15,17,05,31.90
2010,08,15,17,06,31.90
2010,08,15,17,07,31.80
2010,08,15,17,08,31.80
2010,08,15,17,09,31.80
2010,08,15,17,10,31.70
2010,08,15,17,11,31.70
2010,08,15,17,12,31.70
2010,08,15,17,13,31.60
2010,08,15,17,14,31.60
2010,08,15,17,15,31.60
2010,08,15,17,16,31.50
2010,08,15,17,17,31.50
2010,08,15,17,18,31.50
2010,08,15,17,19,31.40